Location: Newark
(40.9833°N, 0.0333°W)
Time: 00:04:34
(UTC+00:00)

Vanguard 2 Rocket - Pass Details

Date: 29 October 2020
Orbit: 554 x 3326 km, 32.9° (Epoch: 24 November)

Event Time Altitude Azimuth Distance (km) Brightness Sun altitude
Rises 19:40:02 0° 253° (WSW) 2,738 10.3 -30.8°
Reaches altitude 10° 19:42:11 10° 242° (WSW) 1,917 9.2 -31.2°
Enters shadow 19:43:42 20° 227° (SW) 1,444 8.2 -31.5°
